カタログに戻る

STARLINK-4027

運用中通信VLEO
NORAD 52601·PAYLOAD·🇺🇸 United States

打ち上げ May 14, 2022 から Cape Canaveral Space Force Station

Loading…

次のパス (今後24時間)

TLE

最新Source: CelesTrak SupGP

元期: Sep 15, 2026, 02:13 UTC

1 52601C 22052D   26258.09284722  .00048046  00000+0  13747-2 0  2585
2 52601  53.1601 140.8644 0001257  78.3199 352.9851 15.35372650    12

AllMySatでSTARLINK-4027をリアルタイム追跡

Download on the App Store